Flag for Fiji Weather past 2 weeks in Lautoka, Fiji

Now
84 °F

Passing clouds.


Feels Like: 90 °F
Forecast: 76 / 86 °F
Wind: 13 mph from West

Location: Nandi


UV Index: 7 (High)

Visibility: N/A


Pressure: 29.86 "Hg

Humidity: 66%

Dew point: 72 °F

Location of LautokaLocation

Historic Weather in Lautoka

°F

Lautoka temperature yesterday

Maximum temperature yesterday: 86 °F (at 1:00 PM)
Minimum temperature yesterday: 72 °F (at 4:00 AM)
Average temperature yesterday: 79 °F

Past Weeks' High & Low Weather Summary

 TemperatureHumidityPressure
High88 °F (Apr 8, 2:00 PM)100% (Apr 5, 4:00 AM)29.95 "Hg (Apr 5, 4:00 AM)
Low68 °F (Apr 6, 2:00 AM)48% (Apr 15, 5:00 PM)29.77 "Hg (Apr 6, 2:00 PM)
Average78 °F81%29.85 "Hg
* Reported Apr 4 1:00 PM — Apr 19 1:00 PM, Lautoka, Weather by CustomWeather, © 2014

Note: Actual official high and low records may vary slightly from our data, if they occured in-between our weather recording intervals... More about our weather records

Advertising

Historic Weather Conditions — Data for Previous 24 hours

 ConditionsComfort  
Time TempWeatherWind HumidityBarometerVisibility
1:00 PM
Apr 19
84 °FPassing clouds.13 mph66%29.86 "HgN/A
12:00 PM86 °FPassing clouds.12 mph59%29.86 "HgN/A
11:00 AM84 °FPassing clouds.7 mph62%29.89 "HgN/A
10:00 AM84 °FPassing clouds.No wind62%29.92 "HgN/A
9:00 AM81 °FPassing clouds.5 mph66%29.89 "HgN/A
8:00 AM75 °FPassing clouds.7 mph78%29.89 "HgN/A
7:00 AM70 °FPassing clouds.6 mph88%29.89 "HgN/A
6:00 AM72 °FPassing clouds.7 mph83%29.86 "HgN/A
5:00 AM70 °FPassing clouds.3 mph94%29.83 "HgN/A
4:00 AM72 °FPassing clouds.3 mph88%29.83 "HgN/A
3:00 AM73 °FPassing clouds.5 mph83%29.83 "HgN/A
2:00 AM73 °FPassing clouds.7 mph89%29.86 "HgN/A
1:00 AM75 °FPassing clouds.6 mph89%29.86 "HgN/A
12:00 AM77 °FPassing clouds.6 mph83%29.89 "HgN/A
11:00 PM
Apr 18
79 °FPassing clouds.6 mph79%29.89 "HgN/A
10:00 PM79 °FPassing clouds.5 mph84%29.89 "HgN/A
9:00 PM81 °FPassing clouds.No wind79%29.86 "HgN/A
8:00 PM81 °FPassing clouds.No wind79%29.86 "HgN/A
7:00 PM82 °FPassing clouds.5 mph74%29.83 "HgN/A
6:00 PM82 °FPassing clouds.6 mph70%29.80 "HgN/A
5:00 PM84 °FScattered clouds.9 mph62%29.80 "HgN/A
4:00 PM84 °FPassing clouds.12 mph66%29.80 "HgN/A
3:00 PM86 °FPassing clouds.13 mph62%29.80 "HgN/A
2:00 PM86 °FPassing clouds.14 mph62%29.80 "HgN/A
1:00 PM86 °FPassing clouds.12 mph62%29.80 "HgN/A
Weather by CustomWeather, © 2014

See weather overview